QPF
0.00 0.00 0.00 0.00 0.00 0.00 0.00 0.00 0.00 0.00 0.00 0.00 0.00 0.00 0.00 0.00 0.00 0.00 0.00 0.00 0.00 0.01 0.01 0.01 0.00 0.01 0.01 0.02 0.02 0.02 0.02 0.02 0.02 0.02 0.02 0.02 0.01 0.01 0.01 0.01 0.01 0.01 0.01 0.01
0.00 0.00 0.00 0.00 0.00 0.00 0.00 0.00 0.00 0.00 0.00 0.00 0.00 0.00 0.00 0.00 0.00 0.00 0.01 0.01 0.00 0.01 0.01 0.01 0.01 0.01 0.02 0.02 0.02 0.02 0.01 0.01 0.01 0.01 0.01 0.01 0.01 0.01 0.01 0.01 0.01 0.01 0.01 0.01
0.00 0.00 0.00 0.00 0.00 0.00 0.00 0.00 0.00 0.00 0.00 0.00 0.00 0.00 0.00 0.00 0.00 0.01 0.01 0.00 0.00 0.01 0.00 0.00 0.00 0.01 0.01 0.01 0.01 0.01 0.00 0.00 0.01 0.01 0.00 0.01 0.01 0.01 0.01 0.01 0.02 0.02 0.02 0.03
0.00 0.00 0.00 0.00 0.00 0.00 0.00 0.00 0.00 0.00 0.00 0.00 0.00 0.01 0.00 0.00 0.00 0.00 0.00 0.01 0.00 0.01 0.00 0.00 0.00 0.00 0.00 0.01 0.01 0.01 0.01 0.01 0.01 0.00 0.00 0.01 0.01 0.01 0.02 0.01 0.02 0.03 0.04 0.06
0.00 0.00 0.00 0.00 0.00 0.00 0.00 0.00 0.00 0.00 0.00 0.00 0.00 0.00 0.00 0.00 0.00 0.00 0.01 0.00 0.00 0.00 0.00 0.00 0.00 0.00 0.00 0.01 0.01 0.01 0.01 0.01 0.01 0.01 0.01 0.01 0.02 0.02 0.01 0.01 0.02 0.02 0.03 0.04
0.00 0.00 0.00 0.00 0.00 0.00 0.00 0.00 0.00 0.00 0.00 0.00 0.00 0.00 0.00 0.01 0.00 0.00 0.00 0.00 0.00 0.00 0.00 0.00 0.00 0.00 0.01 0.01 0.02 0.02 0.02 0.02 0.01 0.02 0.02 0.02 0.02 0.02 0.02 0.02 0.02 0.03 0.03 0.03
0.00 0.00 0.00 0.00 0.00 0.00 0.00 0.00 0.00 0.00 0.00 0.00 0.00 0.00 0.00 0.00 0.00 0.00 0.00 0.00 0.00 0.00 0.00 0.00 0.01 0.01 0.02 0.03 0.04 0.05 0.04 0.03 0.03 0.02 0.02 0.02 0.02 0.02 0.01 0.02 0.02 0.02 0.02 0.02
0.00 0.00 0.01 0.00 0.00 0.00 0.00 0.00 0.00 0.00 0.00 0.00 0.00 0.00 0.01 0.00 0.00 0.00 0.00 0.00 0.00 0.00 0.00 0.01 0.01 0.02 0.02 0.03 0.04 0.04 0.04 0.03 0.04 0.05 0.04 0.02 0.02 0.02 0.02 0.02 0.01 0.02 0.02 0.03
0.01 0.00 0.01 0.01 0.01 0.01 0.00 0.00 0.00 0.00 0.00 0.00 0.00 0.01 0.01 0.00 0.00 0.00 0.00 0.00 0.00 0.00 0.01 0.01 0.02 0.03 0.03 0.03 0.02 0.02 0.02 0.02 0.02 0.02 0.02 0.02 0.02 0.02 0.01 0.01 0.01 0.02 0.03 0.03
0.01 0.01 0.01 0.01 0.00 0.00 0.00 0.00 0.01 0.00 0.00 0.00 0.00 0.01 0.01 0.01 0.00 0.00 0.00 0.00 0.00 0.01 0.01 0.03 0.03 0.04 0.04 0.04 0.03 0.03 0.02 0.01 0.01 0.01 0.01 0.02 0.02 0.02 0.02 0.02 0.02 0.02 0.02 0.02
0.02 0.02 0.01 0.01 0.00 0.00 0.00 0.00 0.00 0.01 0.00 0.01 0.01 0.01 0.01 0.01 0.00 0.00 0.00 0.00 0.01 0.01 0.02 0.03 0.03 0.03 0.03 0.03 0.02 0.02 0.01 0.01 0.01 0.01 0.01 0.01 0.01 0.02 0.02 0.01 0.02 0.03 0.03 0.03
0.02 0.02 0.02 0.02 0.01 0.01 0.01 0.01 0.01 0.00 0.01 0.01 0.01 0.01 0.01 0.00 0.00 0.00 0.01 0.01 0.02 0.02 0.03 0.03 0.02 0.03 0.03 0.02 0.02 0.01 0.01 0.01 0.01 0.01 0.01 0.01 0.01 0.02 0.02 0.02 0.02 0.03 0.03 0.03
0.03 0.03 0.03 0.03 0.02 0.02 0.03 0.03 0.02 0.01 0.01 0.00 0.00 0.01 0.00 0.00 0.00 0.01 0.01 0.01 0.02 0.02 0.02 0.02 0.02 0.03 0.03 0.03 0.02 0.01 0.01 0.02 0.02 0.02 0.02 0.01 0.01 0.01 0.02 0.02 0.03 0.03 0.03 0.03
0.03 0.04 0.04 0.03 0.02 0.02 0.02 0.03 0.03 0.04 0.02 0.01 0.01 0.01 0.01 0.01 0.01 0.01 0.01 0.01 0.01 0.01 0.01 0.01 0.02 0.03 0.03 0.02 0.02 0.02 0.01 0.01 0.01 0.01 0.01 0.01 0.02 0.01 0.01 0.01 0.02 0.02 0.02 0.02
0.03 0.03 0.03 0.02 0.02 0.02 0.01 0.01 0.02 0.03 0.04 0.02 0.01 0.01 0.01 0.01 0.01 0.01 0.01 0.01 0.01 0.01 0.02 0.02 0.02 0.03 0.02 0.02 0.02 0.01 0.01 0.01 0.01 0.01 0.01 0.01 0.02 0.02 0.02 0.01 0.01 0.01 0.02 0.02
0.02 0.02 0.01 0.01 0.02 0.01 0.01 0.01 0.02 0.02 0.03 0.02 0.01 0.02 0.02 0.02 0.01 0.01 0.01 0.02 0.02 0.02 0.03 0.03 0.03 0.03 0.03 0.02 0.02 0.02 0.02 0.01 0.01 0.01 0.01 0.01 0.02 0.02 0.02 0.02 0.02 0.02 0.02 0.02
0.02 0.03 0.02 0.01 0.01 0.01 0.01 0.01 0.02 0.02 0.03 0.03 0.02 0.02 0.02 0.03 0.03 0.02 0.02 0.02 0.02 0.02 0.02 0.02 0.02 0.02 0.02 0.02 0.02 0.02 0.02 0.02 0.01 0.01 0.01 0.01 0.02 0.02 0.02 0.02 0.02 0.01 0.02 0.02
0.02 0.03 0.03 0.02 0.02 0.01 0.01 0.01 0.01 0.02 0.03 0.03 0.03 0.02 0.02 0.03 0.03 0.03 0.03 0.03 0.02 0.02 0.01 0.01 0.01 0.02 0.01 0.01 0.01 0.02 0.02 0.02 0.01 0.01 0.01 0.01 0.02 0.02 0.02 0.02 0.02 0.02 0.02 0.02
0.02 0.02 0.02 0.01 0.02 0.02 0.02 0.02 0.02 0.02 0.02 0.03 0.03 0.03 0.03 0.03 0.02 0.03 0.03 0.03 0.02 0.02 0.02 0.01 0.01 0.01 0.01 0.01 0.01 0.02 0.03 0.02 0.02 0.02 0.02 0.03 0.03 0.02 0.02 0.02 0.03 0.03 0.03 0.03
0.01 0.01 0.01 0.02 0.02 0.03 0.02 0.02 0.02 0.03 0.03 0.03 0.03 0.03 0.03 0.03 0.03 0.03 0.03 0.03 0.02 0.02 0.02 0.01 0.01 0.01 0.01 0.01 0.02 0.03 0.03 0.03 0.02 0.02 0.02 0.03 0.02 0.02 0.02 0.02 0.03 0.04 0.04 0.03
0.01 0.02 0.02 0.02 0.02 0.02 0.02 0.02 0.03 0.03 0.03 0.03 0.03 0.03 0.04 0.04 0.04 0.03 0.03 0.03 0.03 0.03 0.02 0.02 0.01 0.02 0.02 0.02 0.01 0.02 0.03 0.04 0.04 0.03 0.03 0.04 0.04 0.04 0.04 0.04 0.04 0.04 0.04 0.04
0.02 0.03 0.03 0.03 0.03 0.02 0.03 0.03 0.04 0.04 0.04 0.04 0.05 0.05 0.04 0.04 0.03 0.02 0.02 0.02 0.02 0.02 0.01 0.02 0.01 0.01 0.02 0.02 0.01 0.02 0.02 0.03 0.03 0.04 0.04 0.05 0.04 0.04 0.04 0.04 0.05 0.04 0.04 0.04
0.03 0.03 0.03 0.03 0.03 0.03 0.03 0.03 0.04 0.04 0.05 0.04 0.04 0.03 0.03 0.02 0.02 0.02 0.01 0.01 0.01 0.01 0.01 0.01 0.01 0.01 0.01 0.01 0.01 0.01 0.01 0.01 0.02 0.03 0.04 0.04 0.04 0.04 0.05 0.06 0.06 0.05 0.05 0.04
0.02 0.02 0.02 0.03 0.03 0.04 0.05 0.04 0.03 0.03 0.03 0.02 0.03 0.03 0.03 0.03 0.02 0.01 0.01 0.01 0.01 0.01 0.01 0.01 0.01 0.01 0.01 0.01 0.01 0.01 0.01 0.02 0.03 0.04 0.05 0.05 0.05 0.06 0.06 0.06 0.06 0.06 0.05 0.04
0.02 0.02 0.02 0.03 0.04 0.05 0.05 0.05 0.04 0.03 0.03 0.02 0.02 0.02 0.02 0.03 0.03 0.03 0.02 0.02 0.01 0.01 0.02 0.02 0.03 0.04 0.03 0.03 0.02 0.02 0.02 0.03 0.05 0.07 0.08 0.07 0.05 0.05 0.05 0.05 0.04 0.04 0.03 0.03
0.02 0.03 0.03 0.03 0.04 0.04 0.04 0.04 0.04 0.04 0.03 0.03 0.02 0.02 0.02 0.03 0.04 0.04 0.05 0.05 0.04 0.04 0.04 0.04 0.04 0.05 0.05 0.04 0.03 0.03 0.04 0.04 0.07 0.11 0.10 0.07 0.04 0.03 0.03 0.02 0.02 0.02 0.02 0.01
0.02 0.03 0.03 0.03 0.03 0.04 0.03 0.03 0.03 0.03 0.03 0.02 0.02 0.02 0.02 0.02 0.02 0.02 0.04 0.05 0.07 0.08 0.08 0.07 0.06 0.06 0.04 0.04 0.04 0.04 0.04 0.07 0.11 0.12 0.08 0.06 0.04 0.03 0.03 0.03 0.02 0.02 0.01 0.01
MSLP
1008.92 1008.67 1008.46 1008.29 1008.14 1008.02 1007.91 1007.79 1007.67 1007.56 1007.48 1007.47 1007.55 1007.75 1008.08 1008.54 1009.11 1009.74 1010.39 1011.00 1011.53 1011.96 1012.27 1012.48 1012.63 1012.74 1012.88 1013.07 1013.33 1013.66 1014.06 1014.50 1014.94 1015.35 1015.70 1016.00 1016.23 1016.42 1016.58 1016.75 1016.94 1017.15 1017.37 1017.60
1008.95 1008.66 1008.38 1008.10 1007.84 1007.60 1007.37 1007.16 1006.98 1006.84 1006.77 1006.78 1006.91 1007.17 1007.55 1008.07 1008.67 1009.33 1010.01 1010.64 1011.20 1011.66 1012.01 1012.28 1012.48 1012.64 1012.82 1013.04 1013.31 1013.64 1014.03 1014.44 1014.85 1015.24 1015.58 1015.88 1016.12 1016.32 1016.51 1016.70 1016.90 1017.11 1017.32 1017.53
1008.96 1008.63 1008.28 1007.92 1007.56 1007.22 1006.90 1006.62 1006.39 1006.23 1006.15 1006.17 1006.33 1006.61 1007.03 1007.55 1008.17 1008.83 1009.50 1010.14 1010.71 1011.20 1011.59 1011.91 1012.17 1012.40 1012.64 1012.90 1013.20 1013.54 1013.92 1014.32 1014.71 1015.08 1015.42 1015.71 1015.96 1016.19 1016.40 1016.60 1016.82 1017.04 1017.25 1017.45
1008.97 1008.58 1008.16 1007.72 1007.28 1006.86 1006.47 1006.14 1005.87 1005.68 1005.60 1005.63 1005.80 1006.09 1006.50 1007.01 1007.61 1008.25 1008.90 1009.52 1010.09 1010.60 1011.03 1011.40 1011.73 1012.03 1012.33 1012.64 1012.99 1013.35 1013.74 1014.14 1014.52 1014.89 1015.21 1015.50 1015.76 1016.00 1016.23 1016.46 1016.69 1016.93 1017.15 1017.35
1009.01 1008.54 1008.03 1007.51 1006.99 1006.50 1006.06 1005.68 1005.39 1005.19 1005.11 1005.14 1005.30 1005.59 1005.98 1006.47 1007.03 1007.63 1008.24 1008.84 1009.40 1009.91 1010.37 1010.80 1011.18 1011.56 1011.93 1012.31 1012.70 1013.11 1013.53 1013.93 1014.32 1014.68 1015.00 1015.29 1015.55 1015.80 1016.05 1016.29 1016.54 1016.79 1017.02 1017.23
1009.10 1008.53 1007.92 1007.31 1006.71 1006.16 1005.67 1005.26 1004.95 1004.75 1004.66 1004.70 1004.85 1005.12 1005.49 1005.95 1006.46 1007.01 1007.58 1008.14 1008.69 1009.20 1009.69 1010.15 1010.60 1011.05 1011.49 1011.94 1012.39 1012.85 1013.30 1013.73 1014.13 1014.49 1014.82 1015.11 1015.37 1015.63 1015.87 1016.13 1016.38 1016.64 1016.89 1017.11
1009.27 1008.58 1007.87 1007.16 1006.49 1005.87 1005.34 1004.91 1004.58 1004.37 1004.29 1004.32 1004.47 1004.72 1005.06 1005.47 1005.94 1006.45 1006.97 1007.50 1008.02 1008.54 1009.04 1009.54 1010.04 1010.55 1011.06 1011.58 1012.10 1012.61 1013.10 1013.56 1013.98 1014.36 1014.69 1014.99 1015.25 1015.50 1015.75 1016.00 1016.26 1016.52 1016.77 1017.00
1009.50 1008.70 1007.90 1007.10 1006.36 1005.70 1005.12 1004.67 1004.33 1004.11 1004.02 1004.04 1004.18 1004.41 1004.72 1005.10 1005.52 1005.98 1006.46 1006.96 1007.46 1007.97 1008.48 1009.01 1009.55 1010.11 1010.68 1011.26 1011.85 1012.41 1012.95 1013.45 1013.90 1014.30 1014.65 1014.94 1015.21 1015.46 1015.70 1015.94 1016.19 1016.45 1016.70 1016.93
1009.76 1008.89 1008.01 1007.16 1006.38 1005.67 1005.08 1004.60 1004.25 1004.02 1003.92 1003.93 1004.04 1004.24 1004.52 1004.86 1005.24 1005.65 1006.09 1006.55 1007.03 1007.53 1008.05 1008.59 1009.16 1009.76 1010.38 1011.01 1011.65 1012.27 1012.85 1013.40 1013.88 1014.31 1014.67 1014.97 1015.24 1015.48 1015.71 1015.94 1016.18 1016.42 1016.67 1016.90
1010.01 1009.11 1008.21 1007.35 1006.55 1005.83 1005.23 1004.75 1004.39 1004.15 1004.03 1004.01 1004.10 1004.26 1004.50 1004.79 1005.12 1005.49 1005.89 1006.31 1006.76 1007.24 1007.76 1008.30 1008.89 1009.50 1010.15 1010.82 1011.49 1012.15 1012.78 1013.36 1013.88 1014.34 1014.72 1015.03 1015.30 1015.54 1015.75 1015.97 1016.19 1016.42 1016.65 1016.88
1010.18 1009.32 1008.45 1007.62 1006.85 1006.17 1005.58 1005.11 1004.76 1004.51 1004.37 1004.32 1004.37 1004.49 1004.68 1004.92 1005.20 1005.52 1005.87 1006.26 1006.67 1007.12 1007.61 1008.15 1008.72 1009.34 1009.99 1010.68 1011.37 1012.05 1012.70 1013.31 1013.86 1014.33 1014.73 1015.06 1015.34 1015.57 1015.78 1015.98 1016.18 1016.39 1016.61 1016.83
1010.21 1009.44 1008.66 1007.92 1007.23 1006.62 1006.09 1005.66 1005.32 1005.08 1004.93 1004.85 1004.86 1004.93 1005.07 1005.25 1005.48 1005.74 1006.04 1006.38 1006.75 1007.16 1007.61 1008.11 1008.65 1009.25 1009.88 1010.54 1011.23 1011.91 1012.57 1013.18 1013.74 1014.24 1014.65 1014.99 1015.28 1015.51 1015.72 1015.91 1016.11 1016.31 1016.52 1016.73
1010.07 1009.42 1008.79 1008.17 1007.61 1007.10 1006.67 1006.30 1006.01 1005.79 1005.64 1005.55 1005.52 1005.55 1005.63 1005.76 1005.93 1006.14 1006.38 1006.66 1006.98 1007.33 1007.73 1008.17 1008.66 1009.20 1009.78 1010.40 1011.05 1011.70 1012.34 1012.95 1013.51 1014.00 1014.43 1014.79 1015.08 1015.32 1015.54 1015.73 1015.93 1016.13 1016.34 1016.55
1009.74 1009.25 1008.77 1008.32 1007.91 1007.54 1007.22 1006.95 1006.73 1006.55 1006.42 1006.33 1006.28 1006.28 1006.32 1006.40 1006.51 1006.67 1006.85 1007.07 1007.33 1007.62 1007.94 1008.31 1008.72 1009.19 1009.69 1010.24 1010.82 1011.42 1012.02 1012.59 1013.13 1013.62 1014.05 1014.42 1014.73 1014.99 1015.22 1015.43 1015.63 1015.85 1016.07 1016.29
1009.26 1008.92 1008.61 1008.32 1008.07 1007.86 1007.68 1007.52 1007.39 1007.28 1007.19 1007.12 1007.07 1007.05 1007.06 1007.10 1007.18 1007.28 1007.41 1007.57 1007.76 1007.97 1008.22 1008.50 1008.83 1009.19 1009.61 1010.06 1010.56 1011.08 1011.61 1012.14 1012.64 1013.11 1013.54 1013.91 1014.24 1014.53 1014.78 1015.02 1015.25 1015.49 1015.73 1015.98
1008.71 1008.50 1008.33 1008.19 1008.10 1008.03 1007.99 1007.96 1007.93 1007.90 1007.87 1007.84 1007.81 1007.80 1007.80 1007.82 1007.86 1007.92 1008.00 1008.10 1008.23 1008.37 1008.53 1008.73 1008.95 1009.22 1009.53 1009.88 1010.28 1010.71 1011.16 1011.63 1012.09 1012.53 1012.95 1013.33 1013.68 1013.99 1014.28 1014.56 1014.83 1015.10 1015.38 1015.66
1008.18 1008.06 1008.00 1007.99 1008.03 1008.09 1008.17 1008.25 1008.33 1008.38 1008.42 1008.44 1008.45 1008.46 1008.46 1008.48 1008.50 1008.53 1008.57 1008.63 1008.69 1008.77 1008.86 1008.97 1009.10 1009.27 1009.48 1009.73 1010.02 1010.36 1010.74 1011.13 1011.54 1011.96 1012.36 1012.74 1013.11 1013.46 1013.79 1014.11 1014.43 1014.74 1015.06 1015.38
1007.79 1007.73 1007.74 1007.81 1007.94 1008.10 1008.28 1008.45 1008.61 1008.75 1008.85 1008.93 1008.98 1009.01 1009.03 1009.05 1009.06 1009.08 1009.09 1009.11 1009.13 1009.15 1009.18 1009.22 1009.27 1009.36 1009.47 1009.64 1009.84 1010.10 1010.39 1010.73 1011.09 1011.47 1011.86 1012.25 1012.63 1013.00 1013.37 1013.74 1014.10 1014.46 1014.82 1015.18
1007.65 1007.61 1007.65 1007.76 1007.94 1008.15 1008.39 1008.62 1008.84 1009.03 1009.19 1009.31 1009.40 1009.45 1009.49 1009.51 1009.53 1009.53 1009.53 1009.53 1009.52 1009.51 1009.49 1009.48 1009.48 1009.50 1009.55 1009.65 1009.78 1009.97 1010.20 1010.48 1010.80 1011.15 1011.52 1011.91 1012.31 1012.71 1013.11 1013.51 1013.91 1014.30 1014.69 1015.07
1007.81 1007.76 1007.80 1007.92 1008.10 1008.33 1008.59 1008.84 1009.09 1009.31 1009.49 1009.63 1009.74 1009.82 1009.86 1009.89 1009.91 1009.91 1009.91 1009.89 1009.87 1009.84 1009.80 1009.77 1009.74 1009.73 1009.74 1009.79 1009.88 1010.02 1010.21 1010.45 1010.73 1011.05 1011.41 1011.79 1012.19 1012.60 1013.02 1013.44 1013.86 1014.27 1014.68 1015.06
1008.28 1008.21 1008.22 1008.31 1008.47 1008.68 1008.92 1009.17 1009.40 1009.61 1009.80 1009.94 1010.05 1010.13 1010.18 1010.21 1010.22 1010.23 1010.22 1010.21 1010.19 1010.16 1010.13 1010.10 1010.07 1010.05 1010.05 1010.08 1010.15 1010.26 1010.42 1010.63 1010.88 1011.18 1011.52 1011.89 1012.28 1012.69 1013.11 1013.53 1013.95 1014.36 1014.75 1015.12
1008.98 1008.89 1008.87 1008.92 1009.04 1009.21 1009.40 1009.60 1009.80 1009.98 1010.13 1010.26 1010.35 1010.41 1010.46 1010.48 1010.50 1010.51 1010.51 1010.51 1010.51 1010.50 1010.49 1010.48 1010.47 1010.46 1010.48 1010.51 1010.58 1010.68 1010.83 1011.02 1011.25 1011.52 1011.84 1012.18 1012.56 1012.95 1013.35 1013.75 1014.14 1014.53 1014.88 1015.21
1009.83 1009.72 1009.67 1009.68 1009.74 1009.85 1009.98 1010.12 1010.27 1010.40 1010.50 1010.59 1010.65 1010.69 1010.72 1010.74 1010.76 1010.77 1010.79 1010.81 1010.84 1010.86 1010.88 1010.91 1010.93 1010.97 1011.01 1011.06 1011.14 1011.25 1011.38 1011.56 1011.77 1012.02 1012.31 1012.62 1012.96 1013.32 1013.69 1014.05 1014.40 1014.73 1015.04 1015.31
1010.68 1010.56 1010.49 1010.46 1010.47 1010.52 1010.59 1010.67 1010.75 1010.82 1010.87 1010.92 1010.94 1010.96 1010.97 1010.98 1011.00 1011.03 1011.07 1011.11 1011.17 1011.24 1011.31 1011.38 1011.45 1011.52 1011.59 1011.68 1011.77 1011.89 1012.02 1012.19 1012.38 1012.61 1012.86 1013.14 1013.44 1013.75 1014.06 1014.38 1014.67 1014.94 1015.17 1015.37
1011.42 1011.30 1011.21 1011.16 1011.13 1011.12 1011.14 1011.16 1011.18 1011.19 1011.20 1011.20 1011.19 1011.19 1011.19 1011.19 1011.22 1011.26 1011.33 1011.41 1011.50 1011.61 1011.73 1011.84 1011.96 1012.08 1012.19 1012.30 1012.41 1012.54 1012.67 1012.83 1013.00 1013.19 1013.41 1013.65 1013.90 1014.16 1014.42 1014.67 1014.90 1015.10 1015.26 1015.37
1011.95 1011.84 1011.75 1011.68 1011.62 1011.58 1011.55 1011.52 1011.49 1011.46 1011.43 1011.40 1011.37 1011.35 1011.34 1011.35 1011.39 1011.45 1011.55 1011.66 1011.80 1011.95 1012.11 1012.27 1012.43 1012.58 1012.72 1012.86 1012.99 1013.12 1013.25 1013.39 1013.55 1013.71 1013.90 1014.09 1014.30 1014.50 1014.71 1014.90 1015.06 1015.19 1015.28 1015.31
1012.22 1012.13 1012.04 1011.97 1011.90 1011.83 1011.77 1011.71 1011.65 1011.59 1011.53 1011.48 1011.44 1011.41 1011.41 1011.43 1011.49 1011.58 1011.70 1011.85 1012.02 1012.21 1012.40 1012.60 1012.79 1012.98 1013.15 1013.30 1013.44 1013.58 1013.71 1013.83 1013.97 1014.11 1014.25 1014.41 1014.57 1014.73 1014.89 1015.02 1015.13 1015.20 1015.22 1015.19
Thickness
5792 5799 5800 5797 5797 5798 5797 5799 5795 5799 5804 5806 5809 5807 5806 5805 5804 5801 5798 5795 5794 5793 5792 5792 5792 5791 5789 5788 5786 5783 5779 5776 5774 5771 5768 5765 5762 5759 5756 5754 5752 5748 5745 5743
5778 5788 5790 5786 5792 5795 5794 5797 5796 5796 5797 5810 5810 5807 5801 5799 5796 5793 5792 5790 5789 5788 5786 5785 5785 5784 5783 5781 5779 5777 5773 5770 5768 5765 5762 5759 5756 5753 5750 5747 5745 5742 5739 5737
5768 5779 5776 5770 5786 5789 5790 5795 5795 5788 5794 5800 5796 5793 5791 5790 5789 5786 5786 5784 5783 5782 5780 5780 5780 5779 5776 5775 5773 5769 5766 5764 5761 5759 5755 5753 5751 5747 5743 5740 5738 5735 5733 5731
5763 5758 5743 5777 5796 5793 5788 5790 5793 5792 5793 5791 5790 5791 5791 5789 5784 5780 5780 5777 5777 5777 5776 5776 5776 5774 5772 5770 5766 5763 5760 5757 5754 5752 5748 5746 5743 5739 5736 5734 5731 5728 5726 5724
5752 5749 5756 5771 5780 5781 5774 5775 5787 5783 5783 5784 5785 5783 5780 5782 5780 5776 5775 5773 5772 5772 5772 5770 5769 5767 5765 5762 5759 5756 5752 5750 5747 5745 5741 5738 5734 5731 5729 5726 5724 5722 5721 5717
5742 5735 5739 5761 5775 5780 5771 5760 5778 5778 5774 5773 5772 5766 5769 5773 5772 5770 5769 5767 5766 5766 5764 5761 5760 5759 5756 5754 5751 5748 5745 5743 5741 5738 5734 5731 5727 5724 5722 5719 5717 5715 5713 5711
5733 5733 5747 5758 5766 5765 5745 5751 5766 5769 5767 5766 5764 5765 5766 5767 5763 5761 5760 5758 5757 5755 5753 5751 5751 5750 5747 5745 5742 5741 5739 5735 5732 5730 5727 5724 5721 5718 5714 5712 5709 5707 5705 5704
5727 5723 5731 5749 5752 5746 5745 5753 5757 5759 5760 5758 5758 5758 5758 5756 5754 5752 5751 5749 5748 5745 5743 5743 5743 5740 5737 5734 5734 5733 5731 5727 5723 5720 5719 5717 5713 5710 5708 5704 5701 5699 5696 5694
5724 5726 5732 5741 5741 5742 5744 5744 5746 5748 5750 5749 5748 5747 5747 5746 5745 5744 5742 5741 5739 5737 5734 5734 5733 5731 5727 5726 5725 5723 5721 5718 5715 5712 5710 5707 5704 5702 5700 5697 5695 5693 5691 5688
5711 5721 5725 5728 5730 5732 5734 5735 5738 5741 5741 5741 5739 5739 5738 5736 5735 5734 5733 5731 5730 5728 5725 5723 5722 5721 5718 5717 5715 5713 5710 5708 5705 5703 5701 5698 5696 5694 5692 5689 5687 5685 5683 5680
5701 5708 5712 5716 5718 5721 5724 5727 5729 5731 5732 5732 5731 5729 5728 5726 5724 5723 5722 5721 5720 5718 5715 5714 5712 5711 5710 5708 5705 5703 5701 5699 5697 5695 5693 5688 5685 5682 5681 5677 5675 5672 5672 5670
5694 5701 5702 5704 5710 5713 5713 5714 5717 5718 5719 5722 5722 5720 5719 5717 5716 5714 5712 5711 5709 5707 5706 5705 5703 5701 5700 5698 5696 5693 5691 5689 5689 5687 5684 5681 5678 5674 5667 5665 5661 5657 5655 5653
5691 5695 5696 5698 5700 5703 5703 5705 5707 5708 5709 5709 5711 5711 5709 5707 5706 5704 5703 5701 5699 5698 5697 5696 5694 5692 5691 5689 5687 5685 5682 5681 5680 5679 5676 5673 5670 5666 5662 5657 5651 5648 5645 5642
5683 5683 5683 5687 5690 5693 5695 5696 5698 5698 5699 5699 5699 5699 5698 5696 5695 5693 5692 5691 5691 5689 5688 5686 5685 5683 5681 5680 5678 5676 5675 5673 5671 5669 5668 5665 5662 5659 5657 5654 5650 5646 5639 5633
5673 5675 5677 5680 5682 5684 5686 5686 5686 5686 5687 5687 5688 5687 5686 5684 5682 5681 5681 5681 5680 5679 5678 5677 5675 5673 5672 5671 5669 5668 5667 5666 5663 5662 5660 5657 5654 5652 5649 5646 5643 5640 5636 5630
5664 5668 5670 5670 5672 5673 5675 5675 5675 5675 5676 5676 5675 5675 5674 5674 5672 5671 5671 5671 5669 5668 5667 5666 5665 5664 5663 5662 5660 5659 5658 5654 5652 5652 5651 5648 5645 5642 5639 5637 5634 5631 5628 5624
5654 5656 5658 5659 5661 5663 5666 5666 5666 5666 5666 5666 5666 5665 5664 5663 5662 5661 5660 5660 5659 5658 5657 5656 5655 5655 5654 5652 5651 5651 5649 5646 5641 5643 5642 5639 5636 5633 5630 5627 5625 5622 5619 5614
5650 5651 5653 5653 5654 5655 5656 5657 5658 5658 5658 5658 5657 5656 5655 5654 5652 5651 5651 5651 5649 5648 5648 5648 5647 5646 5644 5643 5641 5641 5639 5637 5636 5634 5632 5629 5626 5624 5621 5619 5616 5613 5610 5606
5644 5645 5646 5647 5648 5648 5648 5649 5650 5651 5650 5650 5649 5648 5647 5646 5644 5644 5644 5642 5640 5639 5639 5639 5635 5636 5635 5634 5632 5631 5630 5629 5627 5625 5622 5617 5615 5614 5612 5610 5608 5605 5603 5599
5637 5638 5639 5640 5640 5640 5641 5641 5641 5641 5641 5641 5641 5639 5638 5637 5636 5636 5635 5634 5634 5633 5632 5630 5629 5628 5627 5625 5622 5624 5622 5621 5619 5617 5613 5611 5609 5606 5604 5603 5601 5598 5595 5591
5629 5631 5631 5632 5632 5633 5634 5634 5633 5632 5632 5633 5632 5631 5630 5629 5628 5627 5627 5626 5625 5624 5622 5619 5621 5621 5620 5618 5615 5616 5615 5613 5610 5608 5606 5603 5601 5599 5597 5595 5592 5589 5586 5583
5622 5624 5624 5625 5626 5626 5627 5627 5626 5625 5625 5624 5624 5623 5622 5621 5621 5619 5619 5618 5617 5613 5614 5614 5614 5611 5611 5609 5610 5609 5607 5604 5602 5600 5597 5595 5593 5591 5589 5586 5584 5581 5578 5575
5615 5616 5617 5618 5619 5619 5620 5620 5619 5619 5618 5617 5616 5615 5615 5614 5614 5613 5612 5611 5610 5605 5606 5606 5603 5600 5599 5602 5603 5601 5599 5597 5594 5592 5589 5588 5586 5584 5581 5578 5576 5573 5570 5567
5609 5610 5611 5612 5612 5612 5612 5613 5613 5613 5612 5611 5610 5609 5608 5608 5608 5608 5607 5602 5600 5598 5599 5595 5593 5592 5591 5596 5595 5594 5592 5590 5587 5585 5583 5581 5579 5577 5574 5571 5568 5565 5562 5559
5603 5604 5605 5605 5605 5606 5606 5606 5607 5607 5607 5606 5605 5603 5603 5603 5601 5600 5598 5596 5592 5591 5592 5589 5586 5585 5588 5589 5588 5587 5585 5583 5581 5579 5577 5575 5573 5571 5568 5565 5562 5558 5555 5553
5599 5599 5600 5600 5601 5601 5602 5602 5602 5602 5602 5600 5600 5599 5598 5596 5594 5593 5591 5590 5588 5585 5586 5585 5584 5582 5583 5582 5581 5580 5579 5577 5576 5574 5572 5569 5567 5565 5562 5559 5556 5553 5549 5546
5596 5597 5597 5597 5598 5599 5599 5599 5598 5597 5596 5595 5594 5593 5592 5591 5589 5587 5586 5584 5583 5582 5581 5580 5580 5579 5578 5576 5575 5574 5572 5571 5569 5567 5565 5563 5561 5558 5555 5552 5550 5547 5544 5541